OPS 4682 DEB, 18533

Orbit data source: Space-Track

OPS 4682 DEB, 18533 is space debris in LEO originally from a launch on Sat, 03 Apr 1965 UTC launched from the Air Force Western Test Range (AFWTR). Debris objects in space refer to the collection of defunct objects orbiting the Earth. Examples of debris include non-operational satellites, rocket bodies, and fragments generated from explosions, collisions, or faulty payload assembly.

Loading next visibility...
Identifier
18533, 1965-027AD
Orbit
LEO
Last TLE update
16 hours ago
Origin
Manufacturer
Unknown
Mission
Spacecraft
Bus & Motor
Unknown
Mass
Unknown
Launch date (UTC)
1965-04-03 (60 years ago)
Launch vehicle
Unknown
Launch site
Air Force Western Test Range (AFWTR)
Object type
Payload
Rocket body
Debris
Shape & HBR
Unknown
Radar Cross Section
Small (<0.1 m²)

Expand to show TLE details & history

TLE from 16 hours ago
0 OPS 4682 DEB
1 18533U 65027AD  25128.62464455  .00000229  00000-0  77860-3 0  9998
2 18533  90.2391 357.5447 0027044 105.6156 309.7430 12.95957636841824
Epoch: 2025-05-08T14:59Z
Definitive object data (Epoch: 2025-05-08T14:59:29.289Z)
Latitude
55.2104°
Longitude
-94.36223°
Altitude
1,273.963 km
Speed
7.23 km/s
True Right ascension
23h 48m 48s
True Declination
55° 03' 36"
Sunlit
Object was in daylight at TLE epoch
Visualization TLE readout
Latitude
-86.88097°
Longitude
-89.63499°
Altitude
1,327.118 km
Speed
7.184 km/s
Apparent Right ascension
02h 52m 07s
Apparent Declination
-66° 05' 04"
Sunlit
Object is in daylight
Visualization observer readout
Local Sidereal Time
15:05:03
Azimuth
177.034° S
Elevation
-63.767°
Doppler factor
1
Orbital elements
Apogee altitude
1,295.796 km
Perigee altitude
1,254.402 km
Semi-major axis
7,653.236 km
Eccentricity
0.0027044
Inclination
90.2391°
RAAN
357.5447°
Arg. of periapsis
105.6156°
True anomaly
309.5042°
Mean anomaly
309.743°
Eccentric anomaly
309.62365°
Mean motion
3.24172 °/min
BSTAR
0.0007786
Orbital period
111.05 mins
Loading maneuver chart data...
Loading SW <> Apogee altitude chart data...
Loading historical data...
Loading historical data...
Loading historical data...
Loading historical data...
Loading historical data...
Loading historical data...
Loading historical data...

OPS 4682 DEB Visibility forecast

Observer location: undefined°, undefined°

Span
Click to sort rows by Start time (UTC) header in descending order
Start Az.
Max El. time (UTC)
Max El. Az.
Max El.
End time (UTC)
End Az.
13 mins2025-05-09 14:54:08.624Z149.959° SSE2025-05-09 15:00:08.624Z86.032° E37.612°2025-05-09 15:07:08.624Z8.969° NNE
11 mins2025-05-09 16:46:08.624Z225.199° WSW2025-05-09 16:51:08.624Z273.882° WNW26.354°2025-05-09 16:57:08.624Z333.218° NNW
12 mins2025-05-10 02:32:08.624Z23.937° NE2025-05-10 02:38:08.624Z87.997° E30.105°2025-05-10 02:44:08.624Z145.919° SSE
12 mins2025-05-10 04:23:08.624Z344.18° N2025-05-10 04:29:08.624Z273.984° WNW33.757°2025-05-10 04:35:08.624Z216.146° SW
|